Location: Shenandoah County Park
(38.9356°N, 78.4524°W)
Time: 02:11:54
(UTC-05:00)

Envisat - Pass Details

Date: 05 December 2021
Orbit: 764 x 766 km, 98.2° (Epoch: 23 January)

Event Time Altitude Azimuth Distance (km) Brightness Sun altitude
Rises 17:50:57 0° 217° (SW) 3,218 7.3 -11.4°
Reaches altitude 10° 17:54:47 10° 246° (WSW) 2,299 7.0 -12.1°
Maximum altitude 17:56:48 12° 270° (W) 2,146 6.5 -12.4°
Drops below altitude 10° 17:58:49 10° 294° (WNW) 2,306 6.2 -12.8°
Sets 18:02:41 0° 324° (NW) 3,239 6.5 -13.5°
